Regional Weather Roundup
Issued by NWS Little Rock, AR

Home | Current Version | Previous Version | Text Only | Print | Product List | Glossary On
Versions: 1 2 3 4 5 6 7 8 9 10 11 12 13 14 15 16 17 18 19 20 21 22 23 24 25 26 27 28 29 30 31 32 33 34 35 36 37 38 39 40 41 42 43 44 45 46 47 48 49 50
000
ASUS44 KLZK 240405
RWRLZK

WEATHER ROUNDUP FOR ARKANSAS
NATIONAL WEATHER SERVICE LITTLE ROCK AR
1100 PM CDT TUE SEP 23 2014

NOTE: "FAIR" INDICATES FEW OR NO CLOUDS BELOW 12,000 FEET WITH NO
SIGNIFICANT WEATHER AND/OR OBSTRUCTIONS TO VISIBILITY.

ARZ001-003-010-029-240500-
NORTHWEST ARKANSAS

CITY           SKY/WX    TMP DP  RH WIND       PRES   REMARKS
FAYETTEVILLE   CLEAR     51  51 100 CALM      30.21R
FORT SMITH     CLEAR     63  52  67 CALM      30.17R
HARRISON       CLEAR     53  51  93 CALM      30.23R
BENTONVILLE    CLEAR     59  48  67 SE6       30.21R
ROGERS         FAIR      61  51  70 SE7       30.22R
SILOAM SPGS    CLEAR     57  46  67 SE5       30.21S
HIGHFILL       CLEAR     59  50  72 SE6       30.20R
$$

ARZ004-005-016-240500-
NORTH CENTRAL ARKANSAS

CITY           SKY/WX    TMP DP  RH WIND       PRES   REMARKS
BATESVILLE     PTCLDY    57  46  67 W3        30.21R
FLIPPIN        CLEAR     55  45  67 CALM      30.21S
MTN HOME       CLEAR     59  48  67 E5        30.21S
$$

ARZ040-041-240500-
WEST CENTRAL ARKANSAS

CITY           SKY/WX    TMP DP  RH WIND       PRES   REMARKS
MENA             N/A     54  52  94 CALM        N/A
MOUNT IDA      CLEAR     54  53  97 CALM      30.17R
$$

ARZ009-017-025-026-028-240500-
NORTHEAST ARKANSAS

CITY           SKY/WX    TMP DP  RH WIND       PRES   REMARKS
CORNING          N/A     57  48  72 NE7       30.22S
JONESBORO      CLEAR     60  50  69 NE6       30.20R
NEWPORT        CLEAR     56  50  80 NE6       30.21S
WALNUT RIDGE   PTCLDY    57  48  72 N3        30.19S
BLYTHEVILLE    CLEAR     56  53  90 NE3       30.20R
$$

ARZ022-023-033-042-044-240500-
CENTRAL ARKANSAS

CITY           SKY/WX    TMP DP  RH WIND       PRES   REMARKS
LITTLE ROCK    PTCLDY    63  47  55 E3        30.18R
N LITTLE ROCK  PTCLDY    64  48  57 NE7       30.18R
JACKSONVILLE   CLEAR     56  49  78 E3        30.19R
SEARCY           N/A    N/A N/A N/A MISG        N/A
HOT SPRINGS    CLEAR     58  50  75 CALM      30.19R
RUSSELLVILLE   CLEAR     54  51  90 CALM      30.19R
CLINTON        FAIR      54  52  94 CALM      30.22S
$$

ARZ036-240500-
EAST ARKANSAS

CITY           SKY/WX    TMP DP  RH WIND       PRES   REMARKS
WEST MEMPHIS   CLEAR     61  53  75 CALM      30.17R
$$

ARZ050-053-066-070-073-240500-
SOUTHWEST ARKANSAS

CITY           SKY/WX    TMP DP  RH WIND       PRES   REMARKS
ARKADELPHIA    FAIR      56  55  96 CALM      30.17S FOG
CAMDEN         CLEAR     54  50  87 CALM      30.16R FOG
TEXARKANA      CLEAR     59  52  77 E3        30.16R
EL DORADO      CLEAR     57  53  86 CALM      30.15R
DE QUEEN       CLEAR     54  54 100 E3        30.15R FOG
$$

ARZ056-057-069-240500-
SOUTHEAST ARKANSAS

CITY           SKY/WX    TMP DP  RH WIND       PRES   REMARKS
PINE BLUFF     CLEAR     58  49  72 CALM      30.17R
STUTTGART      CLEAR     57  48  72 NE6       30.19R
MONTICELLO     CLEAR     60  48  64 CALM      30.15R

$$




USA.gov is the U.S. government's official web portal to all federal, state and local government web resources and services.